TimeCDT,TemperatureF,Dew PointF,Humidity,Sea Level PressureIn,VisibilityMPH,Wind Direction,Wind SpeedMPH,Gust SpeedMPH,PrecipitationIn,Events,Conditions,WindDirDegrees,DateUTC
12:53 AM,72.0,51.1,48,29.91,10.0,South,11.5,-,N/A,,Clear,180,2012-09-12 05:53:00
1:53 AM,70.0,51.1,51,29.92,10.0,South,8.1,-,N/A,,Partly Cloudy,190,2012-09-12 06:53:00
2:53 AM,71.1,52.0,51,29.94,10.0,SSW,8.1,-,N/A,,Scattered Clouds,200,2012-09-12 07:53:00
3:53 AM,70.0,53.1,55,29.96,10.0,West,8.1,-,N/A,,Mostly Cloudy,280,2012-09-12 08:53:00
4:53 AM,69.1,53.1,57,29.97,10.0,Calm,Calm,-,N/A,,Mostly Cloudy,0,2012-09-12 09:53:00
5:53 AM,66.0,52.0,60,30.01,10.0,NNW,6.9,-,0.00,Rain,Light Rain,330,2012-09-12 10:53:00
6:53 AM,61.0,55.0,81,30.03,7.0,NNW,5.8,-,0.01,Rain,Light Rain,340,2012-09-12 11:53:00
7:53 AM,60.1,55.0,83,30.06,10.0,North,8.1,-,0.01,Rain,Light Rain,10,2012-09-12 12:53:00
8:53 AM,61.0,55.0,81,30.09,10.0,NNE,10.4,-,0.00,,Partly Cloudy,20,2012-09-12 13:53:00
9:53 AM,63.0,52.0,67,30.09,10.0,NNE,11.5,-,N/A,,Mostly Cloudy,30,2012-09-12 14:53:00
10:53 AM,64.9,52.0,63,30.12,10.0,North,11.5,-,N/A,,Mostly Cloudy,10,2012-09-12 15:53:00
11:53 AM,64.0,46.9,54,30.14,10.0,NNE,11.5,-,0.00,Rain,Light Rain,20,2012-09-12 16:53:00
12:53 PM,63.0,44.1,50,30.16,10.0,North,16.1,-,0.00,,Overcast,360,2012-09-12 17:53:00
1:53 PM,63.0,43.0,48,30.14,10.0,North,13.8,21.9,N/A,,Overcast,10,2012-09-12 18:53:00
2:53 PM,63.0,41.0,45,30.17,10.0,North,16.1,-,N/A,,Overcast,360,2012-09-12 19:53:00
3:53 PM,61.0,43.0,52,30.21,10.0,North,12.7,19.6,0.00,Rain,Light Rain,350,2012-09-12 20:53:00
4:53 PM,55.9,50.0,80,30.21,8.0,North,11.5,-,0.01,Rain,Light Rain,350,2012-09-12 21:53:00
5:53 PM,55.0,48.9,80,30.18,10.0,North,12.7,-,0.03,Rain,Light Rain,10,2012-09-12 22:53:00
6:45 PM,53.6,48.2,82,30.23,1.8,North,10.4,-,0.10,Rain,Heavy Rain,360,2012-09-12 23:45:00
6:53 PM,53.1,50.0,89,30.22,1.8,NNE,9.2,-,0.14,Rain,Heavy Rain,20,2012-09-12 23:53:00
7:00 PM,53.6,50.0,88,30.23,2.5,NNE,8.1,-,0.02,Rain,Rain,20,2012-09-13 00:00:00
7:53 PM,53.1,50.0,89,30.23,7.0,NNE,8.1,-,0.08,Rain,Light Rain,20,2012-09-13 00:53:00
8:53 PM,53.1,48.9,86,30.25,10.0,NNE,5.8,-,0.01,Rain,Light Rain,20,2012-09-13 01:53:00
9:53 PM,52.0,50.0,93,30.27,10.0,Calm,Calm,-,0.02,Rain,Light Rain,0,2012-09-13 02:53:00
10:53 PM,52.0,48.9,89,30.28,10.0,North,3.5,-,0.01,,Overcast,10,2012-09-13 03:53:00
11:53 PM,52.0,48.9,89,30.29,9.0,NE,5.8,-,0.04,Rain,Light Rain,40,2012-09-13 04:53:00